EZY97TU LOWI-EGPH

Flight info

Callsign EZY97TU
Flight time N/A
Altitude 38000
Route KOGOL M726 KEMES DCT GASKA DCT MAPOX DCT BIGGE DCT TOPPA DCT AGPED
Aircraft A20N/M-SDE2E3FGHIJ1RWXYZ/LB1

Departure

Time N/A
Airport Innsbruck Airport (LOWI)

Arrival

Time 2026-05-04 15:50
Airport Edinburgh Airport (EGPH)
Time Latitude Longitude Altitude Speed Heading
2026-05-04 14:21 50.56425 9.88912 37972 ft 432 kts 306°
2026-05-04 14:21 50.60327 9.81686 37975 ft 432 kts 306°
2026-05-04 14:22 50.64223 9.74451 37963 ft 432 kts 306°
2026-05-04 14:22 50.68103 9.67224 37974 ft 432 kts 306°
2026-05-04 14:23 50.73918 9.56357 37961 ft 431 kts 306°
2026-05-04 14:24 50.77759 9.49154 37968 ft 431 kts 305°
2026-05-04 14:24 50.81624 9.41886 37978 ft 431 kts 305°
2026-05-04 14:25 50.85486 9.34600 37957 ft 431 kts 305°
2026-05-04 14:25 50.91263 9.23665 37966 ft 432 kts 305°
2026-05-04 14:26 50.95118 9.16343 37968 ft 432 kts 305°
2026-05-04 14:26 50.98970 9.09007 37968 ft 432 kts 305°
2026-05-04 14:27 51.02790 9.01708 37967 ft 432 kts 305°
2026-05-04 14:27 51.06635 8.94342 37965 ft 432 kts 305°
2026-05-04 14:28 51.10472 8.86971 37966 ft 432 kts 305°
2026-05-04 14:28 51.14312 8.79567 37963 ft 434 kts 304°
2026-05-04 14:29 51.21855 8.64618 37966 ft 433 kts 304°
2026-05-04 14:30 51.25630 8.57111 37971 ft 434 kts 304°
2026-05-04 14:31 51.31303 8.45799 37971 ft 434 kts 304°
2026-05-04 14:32 51.38569 8.30450 37965 ft 432 kts 302°
2026-05-04 14:32 51.42137 8.22729 37968 ft 432 kts 302°
2026-05-04 14:33 51.45734 8.14981 37967 ft 432 kts 302°
2026-05-04 14:33 51.49243 8.07398 37965 ft 432 kts 302°
2026-05-04 14:34 51.52825 7.99630 37963 ft 432 kts 302°
2026-05-04 14:34 51.56403 7.91845 37961 ft 432 kts 302°
2026-05-04 14:35 51.59951 7.84101 37961 ft 432 kts 302°
2026-05-04 14:35 51.63511 7.76309 37959 ft 432 kts 302°
2026-05-04 14:36 51.67046 7.68546 37960 ft 431 kts 302°
2026-05-04 14:36 51.70593 7.60736 37960 ft 432 kts 301°
2026-05-04 14:37 51.73537 7.54233 37958 ft 432 kts 301°
2026-05-04 14:37 51.77085 7.46377 37961 ft 432 kts 301°
2026-05-04 14:38 51.80622 7.38519 37956 ft 432 kts 301°
2026-05-04 14:38 51.84162 7.30632 37964 ft 432 kts 301°
2026-05-04 14:39 51.87682 7.22766 37972 ft 432 kts 301°
2026-05-04 14:39 51.91191 7.14898 37978 ft 433 kts 301°
2026-05-04 14:40 51.96465 7.03031 37978 ft 433 kts 301°
2026-05-04 14:40 51.99985 6.95079 37977 ft 433 kts 301°
2026-05-04 14:41 52.03463 6.87198 37984 ft 433 kts 301°
2026-05-04 14:42 52.10491 6.71198 37974 ft 433 kts 301°
2026-05-04 14:42 52.13966 6.63250 37971 ft 433 kts 301°
2026-05-04 14:43 52.17458 6.55237 37973 ft 433 kts 301°
2026-05-04 14:43 52.20927 6.47253 37964 ft 433 kts 301°
2026-05-04 14:44 52.24413 6.39205 37964 ft 433 kts 301°
2026-05-04 14:44 52.27884 6.31167 37961 ft 433 kts 300°
2026-05-04 14:45 52.31335 6.23148 37950 ft 433 kts 300°
2026-05-04 14:45 52.34804 6.15064 37951 ft 433 kts 300°
2026-05-04 14:46 52.38245 6.07018 37950 ft 433 kts 300°
2026-05-04 14:46 52.41701 5.98914 37963 ft 434 kts 300°
2026-05-04 14:47 52.45181 5.90726 37967 ft 434 kts 300°
2026-05-04 14:47 52.48637 5.82567 37978 ft 435 kts 300°
2026-05-04 14:48 52.52067 5.74446 37986 ft 435 kts 300°
2026-05-04 14:48 52.55519 5.66245 37993 ft 436 kts 300°
2026-05-04 14:49 52.58969 5.58022 37989 ft 436 kts 300°
2026-05-04 14:49 52.62395 5.49832 37991 ft 436 kts 300°
2026-05-04 14:50 52.65838 5.41575 37995 ft 436 kts 301°
2026-05-04 14:50 52.69252 5.33358 37996 ft 436 kts 301°
2026-05-04 14:51 52.72688 5.25064 37997 ft 436 kts 301°
2026-05-04 14:51 52.76113 5.16767 38002 ft 436 kts 301°
2026-05-04 14:52 52.79523 5.08479 38009 ft 436 kts 301°
2026-05-04 14:52 52.82910 5.00221 38022 ft 436 kts 301°
2026-05-04 14:53 52.86313 4.91898 38024 ft 436 kts 301°
2026-05-04 14:53 52.89704 4.83575 38021 ft 436 kts 301°
2026-05-04 14:54 52.93071 4.75288 38017 ft 436 kts 301°
2026-05-04 14:54 52.96453 4.66933 38016 ft 436 kts 301°
2026-05-04 14:55 52.99837 4.58547 38010 ft 436 kts 301°
2026-05-04 14:55 53.03219 4.50138 38003 ft 437 kts 301°
2026-05-04 14:56 53.06578 4.41759 37996 ft 437 kts 301°
2026-05-04 14:56 53.09952 4.33314 37997 ft 438 kts 301°
2026-05-04 14:57 53.13304 4.24895 37999 ft 438 kts 301°
2026-05-04 14:57 53.16676 4.16398 38003 ft 439 kts 301°
2026-05-04 14:58 53.20029 4.07922 38009 ft 440 kts 301°
2026-05-04 14:58 53.23405 3.99356 38022 ft 440 kts 301°
2026-05-04 14:59 53.26770 3.90791 38026 ft 441 kts 301°
2026-05-04 15:00 53.31793 3.77952 38041 ft 442 kts 301°
2026-05-04 15:00 53.35157 3.69326 38048 ft 442 kts 301°
2026-05-04 15:01 53.40160 3.56390 38047 ft 439 kts 299°
2026-05-04 15:01 53.43212 3.47508 38040 ft 439 kts 298°
2026-05-04 15:02 53.46293 3.38699 38042 ft 440 kts 298°
2026-05-04 15:02 53.49384 3.29826 38040 ft 440 kts 298°
2026-05-04 15:03 53.52461 3.20921 38036 ft 440 kts 298°
2026-05-04 15:03 53.55523 3.12005 38034 ft 440 kts 298°
2026-05-04 15:04 53.58586 3.03050 38045 ft 440 kts 298°
2026-05-04 15:04 53.61616 2.94156 38033 ft 440 kts 298°
2026-05-04 15:05 53.64663 2.85182 38031 ft 440 kts 298°
2026-05-04 15:05 53.67705 2.76187 38037 ft 440 kts 298°
2026-05-04 15:06 53.70729 2.67217 38045 ft 440 kts 298°
2026-05-04 15:07 53.75269 2.53684 38037 ft 441 kts 298°
2026-05-04 15:07 53.78270 2.44698 38031 ft 441 kts 298°
2026-05-04 15:08 53.81283 2.35642 38033 ft 441 kts 298°
2026-05-04 15:08 53.84288 2.26577 38049 ft 441 kts 298°
2026-05-04 15:09 53.87295 2.17472 38053 ft 441 kts 298°
2026-05-04 15:09 53.90264 2.08449 38041 ft 441 kts 298°
2026-05-04 15:10 53.94752 1.94748 38038 ft 441 kts 298°
2026-05-04 15:11 53.99210 1.81057 38048 ft 441 kts 297°
2026-05-04 15:11 54.02179 1.71901 38055 ft 441 kts 297°
2026-05-04 15:12 54.05122 1.62787 38047 ft 441 kts 297°
2026-05-04 15:12 54.08071 1.53620 38049 ft 441 kts 297°
2026-05-04 15:13 54.10521 1.45976 38050 ft 441 kts 297°
2026-05-04 15:13 54.13462 1.36773 38050 ft 441 kts 297°
2026-05-04 15:14 54.16867 1.26072 38051 ft 441 kts 297°
2026-05-04 15:14 54.19307 1.18372 38051 ft 441 kts 297°
2026-05-04 15:15 54.22226 1.09132 38053 ft 441 kts 297°
2026-05-04 15:15 54.25142 0.99862 38053 ft 441 kts 297°
2026-05-04 15:16 54.29480 0.86012 38056 ft 442 kts 297°
2026-05-04 15:17 54.33828 0.72044 38057 ft 442 kts 297°
2026-05-04 15:17 54.38163 0.58041 38050 ft 442 kts 297°
2026-05-04 15:18 54.41024 0.48754 38049 ft 442 kts 297°
2026-05-04 15:19 54.45340 0.34671 38066 ft 441 kts 297°
2026-05-04 15:19 54.49622 0.20619 38059 ft 441 kts 297°
2026-05-04 15:20 54.52447 0.11304 38048 ft 441 kts 297°
2026-05-04 15:20 54.55279 0.01929 38038 ft 441 kts 297°
2026-05-04 15:21 54.58098 -0.07441 38042 ft 439 kts 297°
2026-05-04 15:22 54.62289 -0.21438 38038 ft 438 kts 297°
2026-05-04 15:22 54.66463 -0.35463 38034 ft 438 kts 297°
2026-05-04 15:23 54.69225 -0.44792 38030 ft 437 kts 297°
2026-05-04 15:23 54.71986 -0.54153 38027 ft 436 kts 297°
2026-05-04 15:24 54.77494 -0.72938 38024 ft 435 kts 297°
2026-05-04 15:25 54.80190 -0.82189 37468 ft 433 kts 297°
2026-05-04 15:25 54.81535 -0.86818 36684 ft 436 kts 297°
2026-05-04 15:26 54.84295 -0.96350 35225 ft 437 kts 297°
2026-05-04 15:26 54.85649 -1.01037 34962 ft 432 kts 297°
2026-05-04 15:26 54.88391 -1.10560 34480 ft 446 kts 297°
2026-05-04 15:27 54.89776 -1.15386 34235 ft 445 kts 297°
2026-05-04 15:27 54.92524 -1.24987 33718 ft 444 kts 297°
2026-05-04 15:28 54.95227 -1.34472 33176 ft 445 kts 297°
2026-05-04 15:28 54.96600 -1.39302 32905 ft 445 kts 297°
2026-05-04 15:28 54.99336 -1.48967 31503 ft 448 kts 297°
2026-05-04 15:29 55.00726 -1.53890 30461 ft 454 kts 297°
2026-05-04 15:30 55.06258 -1.73582 27115 ft 444 kts 297°
2026-05-04 15:30 55.10266 -1.87919 25067 ft 430 kts 296°
2026-05-04 15:31 55.13412 -1.96670 23773 ft 422 kts 310°
2026-05-04 15:31 55.15451 -2.00341 23043 ft 419 kts 316°
2026-05-04 15:32 55.21666 -2.10736 21014 ft 405 kts 315°
2026-05-04 15:32 55.25694 -2.17505 19726 ft 398 kts 315°
2026-05-04 15:33 55.29654 -2.24179 18479 ft 390 kts 315°
2026-05-04 15:34 55.35420 -2.33933 16507 ft 378 kts 314°
2026-05-04 15:34 55.37305 -2.37131 15869 ft 375 kts 314°
2026-05-04 15:34 55.41028 -2.43461 14602 ft 368 kts 314°
2026-05-04 15:35 55.44628 -2.49596 13362 ft 362 kts 314°
2026-05-04 15:35 55.46428 -2.52670 12728 ft 358 kts 314°
2026-05-04 15:35 55.48205 -2.55711 12120 ft 354 kts 314°
2026-05-04 15:36 55.51717 -2.61728 10912 ft 348 kts 314°
2026-05-04 15:36 55.53445 -2.64697 10498 ft 341 kts 314°
2026-05-04 15:36 55.55099 -2.67485 10352 ft 326 kts 318°
2026-05-04 15:37 55.57036 -2.69433 10213 ft 316 kts 334°
2026-05-04 15:37 55.59036 -2.70877 10080 ft 303 kts 335°
2026-05-04 15:37 55.60949 -2.72252 9965 ft 290 kts 334°
2026-05-04 15:37 55.62776 -2.73574 9682 ft 284 kts 334°
2026-05-04 15:38 55.64602 -2.74903 9501 ft 275 kts 334°
2026-05-04 15:38 55.66366 -2.76193 9379 ft 281 kts 334°
2026-05-04 15:38 55.68189 -2.77529 9242 ft 279 kts 334°
2026-05-04 15:38 55.69959 -2.78822 9108 ft 278 kts 334°
2026-05-04 15:39 55.71748 -2.80131 8977 ft 276 kts 334°
2026-05-04 15:39 55.73525 -2.81432 8849 ft 276 kts 334°
2026-05-04 15:39 55.77075 -2.84038 8343 ft 279 kts 334°
2026-05-04 15:40 55.78877 -2.85360 7961 ft 279 kts 334°
2026-05-04 15:40 55.80671 -2.86676 7598 ft 277 kts 334°
2026-05-04 15:40 55.82451 -2.87984 7219 ft 275 kts 334°
2026-05-04 15:40 55.84193 -2.89266 6861 ft 274 kts 334°
2026-05-04 15:41 55.85888 -2.90516 6534 ft 271 kts 334°
2026-05-04 15:41 55.87619 -2.91793 6209 ft 267 kts 334°
2026-05-04 15:41 55.89350 -2.93073 5859 ft 264 kts 334°
2026-05-04 15:41 55.91035 -2.94323 5518 ft 262 kts 334°
2026-05-04 15:42 55.92695 -2.95556 5135 ft 260 kts 334°
2026-05-04 15:42 55.94353 -2.96784 4848 ft 256 kts 334°
2026-05-04 15:42 55.96002 -2.98007 4464 ft 255 kts 334°
2026-05-04 15:42 55.97642 -2.99222 4079 ft 254 kts 334°
2026-05-04 15:43 55.99240 -3.00405 3965 ft 242 kts 334°
2026-05-04 15:43 56.00759 -3.01531 3872 ft 231 kts 334°
2026-05-04 15:43 56.02212 -3.02609 3790 ft 220 kts 334°
2026-05-04 15:43 56.03554 -3.03754 3678 ft 206 kts 320°
2026-05-04 15:44 56.04381 -3.05625 3584 ft 189 kts 288°
2026-05-04 15:44 56.04503 -3.07836 3545 ft 172 kts 263°
2026-05-04 15:44 56.04169 -3.09832 3409 ft 168 kts 249°
2026-05-04 15:44 56.03643 -3.11648 3228 ft 157 kts 243°
2026-05-04 15:45 56.03108 -3.13236 3039 ft 139 kts 243°
2026-05-04 15:45 56.02638 -3.14631 2870 ft 123 kts 244°
2026-05-04 15:45 56.02214 -3.15898 2723 ft 123 kts 243°
2026-05-04 15:45 56.01764 -3.17234 2559 ft 126 kts 243°
2026-05-04 15:46 56.01315 -3.18566 2394 ft 125 kts 243°
2026-05-04 15:46 56.00865 -3.19898 2221 ft 124 kts 243°
2026-05-04 15:46 56.00420 -3.21215 2057 ft 123 kts 243°
2026-05-04 15:46 55.99980 -3.22519 1887 ft 122 kts 243°
2026-05-04 15:47 55.99539 -3.23827 1720 ft 124 kts 243°
2026-05-04 15:47 55.99094 -3.25143 1534 ft 123 kts 242°
2026-05-04 15:47 55.98651 -3.26453 1374 ft 122 kts 242°
2026-05-04 15:47 55.98218 -3.27735 1206 ft 120 kts 243°
2026-05-04 15:48 55.97928 -3.28596 1100 ft 123 kts 243°
2026-05-04 15:48 55.97482 -3.29909 917 ft 121 kts 243°
2026-05-04 15:48 55.96631 -3.32472 584 ft 119 kts 243°
2026-05-04 15:49 55.96187 -3.33751 390 ft 122 kts 240°
2026-05-04 15:49 55.95746 -3.35047 237 ft 121 kts 242°
2026-05-04 15:49 55.95317 -3.36321 117 ft 117 kts 241°
2026-05-04 15:49 55.94965 -3.37359 112 ft 69 kts 238°
2026-05-04 15:50 55.94798 -3.37844 113 ft 30 kts 239°
2026-05-04 15:50 55.94712 -3.38044 113 ft 14 kts 197°
2026-05-04 15:50 55.94633 -3.37994 113 ft 8 kts 145°
2026-05-04 15:50 55.94596 -3.37911 113 ft 10 kts 92°
2026-05-04 15:51 55.94628 -3.37783 113 ft 13 kts 57°
2026-05-04 15:51 55.94680 -3.37623 113 ft 17 kts 60°
2026-05-04 15:51 55.94748 -3.37428 114 ft 20 kts 58°
2026-05-04 15:51 55.94818 -3.37215 114 ft 21 kts 58°
2026-05-04 15:52 55.94885 -3.37021 115 ft 14 kts 59°
2026-05-04 15:52 55.94929 -3.36887 114 ft 10 kts 72°
2026-05-04 15:52 55.94895 -3.36773 116 ft 10 kts 109°
2026-05-04 15:52 55.94905 -3.36692 115 ft 1 kts 117°
2026-05-04 15:53 55.94898 -3.36670 115 ft 2 kts 114°
2026-05-04 15:53 55.94890 -3.36651 115 ft 3 kts 128°
2026-05-04 15:53 55.94870 -3.36624 115 ft 4 kts 147°
2026-05-04 15:53 55.94858 -3.36609 114 ft 0 kts 147°
2026-05-04 15:54 55.94854 -3.36605 114 ft 1 kts 146°
2026-05-04 15:54 55.94851 -3.36601 114 ft 0 kts 146°
2026-05-04 15:54 55.94850 -3.36600 114 ft 0 kts 146°
2026-05-04 15:55 55.94852 -3.36602 114 ft 2 kts 142°
2026-05-04 15:55 55.94851 -3.36601 114 ft 1 kts 143°
2026-05-04 15:57 55.94848 -3.36597 115 ft 0 kts 145°
2026-05-04 15:58 55.94848 -3.36598 115 ft 0 kts 145°